Flag for Switzerland Weather past 2 weeks in Lausanne, Vaud, Switzerland

Now
33 °F

Chilly.


Feels Like: 21 °F
Forecast: 25 / 34 °F
Wind: 23 mph from Southeast

Location: Aigle

Current Time: Dec 27, 2014 at 9:58:25 AM

Latest Report: Dec 27, 2014 at 9:00 AM


Visibility: N/A

Pressure: 29.83 "Hg

Humidity: 83%

Dew point: 29 °F

Location of LausanneLocation

Historic Weather in Lausanne — Graph

°F

Lausanne temperature yesterday

Maximum temperature yesterday: 43 °F (at 2:00 PM)
Minimum temperature yesterday: 31 °F (at 10:00 PM)
Average temperature yesterday: 37 °F

Past Weeks' High & Low Weather Summary

 TemperatureHumidityPressure
High56 °F (Dec 13, 1:00 PM)99% (Dec 19, 12:00 AM)30.63 "Hg (Dec 19, 12:00 AM)
Low29 °F (Dec 24, 7:00 AM)36% (Dec 23, 2:00 PM)29.86 "Hg (Dec 27, 8:00 AM)
Average42 °F77%30.26 "Hg
* Reported Dec 12 8:00 AM — Dec 27 8:00 AM, Lausanne, Weather by CustomWeather, © 2014

Note: Actual official high and low records may vary slightly from our data, if they occured in-between our weather recording intervals... More about our weather records

Advertising

Lausanne weather history for previous 24 hours

 ConditionsComfort  
Time TempWeatherWind HumidityBarometerVisibility
8:00 AM
Dec 27
33 °FChilly.29 mph82%29.86 "HgN/A
7:00 AM33 °FLight snow. Low clouds.24 mph84%29.93 "Hg1 mi
6:00 AM33 °FChilly.24 mph84%30.00 "HgN/A
5:00 AM35 °FChilly.17 mph74%30.07 "HgN/A
4:00 AM36 °FFog.13 mph55%30.11 "Hg8 mi
3:00 AM34 °FChilly.5 mph66%30.16 "HgN/A
2:00 AM32 °FChilly.8 mph76%30.19 "HgN/A
1:00 AM31 °FChilly.3 mph77%30.24 "HgN/A
12:00 AM30 °FChilly.5 mph82%30.28 "HgN/A
11:00 PM
Dec 26
33 °FChilly.5 mph73%30.31 "HgN/A
10:00 PM31 °FChilly.3 mph86%30.35 "HgN/A
9:00 PM31 °FChilly.2 mph89%30.38 "HgN/A
8:00 PM33 °FChilly.1 mph80%30.40 "HgN/A
7:00 PM35 °FOvercast.3 mph72%30.40 "Hg9 mi
6:00 PM35 °FChilly.2 mph71%30.39 "HgN/A
5:00 PM40 °FChilly.2 mph54%30.39 "HgN/A
4:00 PM42 °FOvercast.6 mph52%30.40 "Hg19 mi
3:00 PM43 °FQuite cool.6 mph49%30.39 "HgN/A
2:00 PM43 °FQuite cool.6 mph56%30.41 "HgN/A
1:00 PM42 °FPassing clouds.3 mph56%30.42 "Hg28 mi
12:00 PM42 °FQuite cool.2 mph66%30.46 "HgN/A
11:00 AM41 °FQuite cool.3 mph64%30.49 "HgN/A
10:00 AM36 °FPassing clouds.2 mph83%30.50 "Hg25 mi
9:00 AM34 °FChilly.3 mph84%30.50 "HgN/A
Weather by CustomWeather, © 2014

See weather overviewHow to use our weather pages